Ajaccio, France

10:31 AM CEST on May 22, 2018 (GMT +0200)
Campo Dell' Oro

Weather History for LFKJ - June, 2013

Change the Weather History Date:

Wednesday, June 19, 2013

  Actual Average Record
Temperature  
Mean Temperature 78 °F -  
Max Temperature 88 °F 79 °F 93 °F (2007)
Min Temperature 68 °F 60 °F 51 °F (1998)
Cooling Degree Days 13    
Growing Degree Days 28 (Base 50)    
Moisture  
Dew Point 60 °F    
Average Humidity 57    
Maximum Humidity 88    
Minimum Humidity 29    
Precipitation  
Precipitation 0.00 in 0.02 in - ()
Sea Level Pressure  
Sea Level Pressure 29.95 in    
Wind  
Wind Speed 8 mph ()    
Max Wind Speed 20 mph    
Max Gust Speed -    
Visibility 7.5 miles    
Events      
Averages and records for this station are not official NWS values.
T = Trace of Precipitation, MM = Missing Value Source: Averaged Metar Reports

Daily Weather History Graph

Daily Weather History Graph

Search for Another Location

Airport or City:

Astronomy

Jun. 19, 2013 Rise Set
Actual Time 5:49 AM CEST 9:03 PM CEST
Civil Twilight 5:14 AM CEST 9:37 PM CEST
Nautical Twilight 4:30 AM CEST 10:21 PM CEST
Astronomical Twilight 3:36 AM CEST 11:15 PM CEST
Moon 4:34 PM CEST (6/19) 2:26 AM CEST (6/19)
Length of Visible Light 16h 22m
Length of Day
15h 13m
Waxing Gibbous, 78% of the Moon is Illuminated
Jun 19
Waxing Gibbous
Jun 23
Full
Jun 30
Last Quarter
Jul 8
New
Jul 16
First Quarter

Hourly Weather History & Observations

Time (CEST) Temp. Heat Index Dew Point Humidity Pressure Visibility Wind Dir Wind Speed Gust Speed Precip Events Conditions
12:00 AM 75.2 °F - 50.0 °F 41% 29.89 in - NE 8.1 mph - N/A   Clear
12:30 AM 77.0 °F - 50.0 °F 39% 29.89 in - NNE 9.2 mph - N/A   Clear
1:00 AM 73.4 °F - 51.8 °F 47% 29.89 in - ENE 6.9 mph - N/A   Clear
1:30 AM 73.4 °F - 50.0 °F 44% 29.89 in 6.2 mi NE 8.1 mph - N/A   Unknown
2:00 AM 71 °F - 50 °F 37% 29.91 in 37 mi NE 8.1 mph - -   Clear
2:00 AM 71.6 °F - 50.0 °F 46% 29.89 in 6.2 mi NE 8.1 mph - N/A   Unknown
2:30 AM 69.8 °F - 50.0 °F 49% 29.89 in 6.2 mi NE 11.5 mph - N/A   Unknown
3:00 AM 69.8 °F - 50.0 °F 49% 29.89 in 6.2 mi NE 9.2 mph - N/A   Unknown
3:30 AM 69.8 °F - 50.0 °F 49% 29.89 in 6.2 mi NNE 9.2 mph - N/A   Unknown
4:00 AM 69.8 °F - 50.0 °F 49% 29.89 in 6.2 mi NE 6.9 mph - N/A   Unknown
4:30 AM 69.8 °F - 50.0 °F 49% 29.89 in 6.2 mi NE 5.8 mph - N/A   Unknown
5:00 AM 68.0 °F - 50.0 °F 52% 29.92 in 6.2 mi NE 8.1 mph - N/A   Unknown
5:30 AM 68.0 °F - 51.8 °F 56% 29.92 in 6.2 mi NE 8.1 mph - N/A   Unknown
6:00 AM 69.8 °F - 51.8 °F 53% 29.92 in 6.2 mi NE 8.1 mph - N/A   Unknown
6:30 AM 69.8 °F - 51.8 °F 53% 29.92 in 6.2 mi NE 6.9 mph - N/A   Unknown
7:00 AM 73.4 °F - 50.0 °F 44% 29.92 in - ENE 4.6 mph - N/A   Clear
7:30 AM 77.0 °F - 51.8 °F 41% 29.92 in - NE 8.1 mph - N/A   Clear
8:00 AM 81 °F - 54 °F 29% 29.93 in 19 mi NE 6.9 mph - -   Clear
8:30 AM 84.2 °F 83.0 °F 55.4 °F 37% 29.92 in - Variable 2.3 mph - N/A   Clear
9:00 AM 80.6 °F 82.7 °F 66.2 °F 61% 29.95 in - SW 5.8 mph - N/A   Clear
9:30 AM 80.6 °F 82.3 °F 64.4 °F 58% 29.95 in - South 5.8 mph - N/A   Clear
10:00 AM 87.8 °F 86.1 °F 55.4 °F 33% 29.95 in - Variable 2.3 mph - N/A   Clear
10:30 AM 84.2 °F 83.8 °F 59.0 °F 42% 29.95 in - West 10.4 mph - N/A   Clear
11:00 AM 84.2 °F 85.0 °F 62.6 °F 48% 29.95 in - SW 4.6 mph - N/A   Clear
11:30 AM 84.2 °F 85.6 °F 64.4 °F 51% 29.95 in - SW 5.8 mph - N/A   Clear
12:00 PM 86.0 °F 86.6 °F 62.6 °F 45% 29.95 in - WSW 5.8 mph - N/A   Clear
12:30 PM 86.0 °F 86.6 °F 62.6 °F 45% 29.95 in - WSW 11.5 mph - N/A   Clear
1:00 PM 86.0 °F 89.4 °F 68.0 °F 55% 29.95 in - SSW 10.4 mph - N/A   Clear
1:30 PM 86.0 °F 88.2 °F 66.2 °F 51% 29.95 in - South 10.4 mph - N/A   Clear
2:00 PM 82 °F - 64 °F 46% 30.00 in 19 mi WSW 15.0 mph - -   Clear
2:00 PM 86.0 °F 87.3 °F 64.4 °F 48% 29.98 in - Variable 6.9 mph - N/A   Clear
2:30 PM 78.8 °F - 66.2 °F 65% 30.01 in - SW 19.6 mph - N/A   Clear
3:00 PM 78.8 °F - 66.2 °F 65% 30.01 in - WSW 17.3 mph - N/A   Clear
3:11 PM 78.8 °F - 66.2 °F 65% 30.01 in 6.2 mi SW 16.1 mph - N/A   Partly Cloudy
3:30 PM 78.8 °F - 66.2 °F 65% 30.01 in 6.2 mi SW 13.8 mph - N/A   Partly Cloudy
4:00 PM 78.8 °F - 66.2 °F 65% 30.01 in 6.2 mi SSW 12.7 mph - N/A   Partly Cloudy
4:30 PM 77.0 °F - 66.2 °F 69% 30.01 in 6.2 mi SSW 12.7 mph - N/A   Partly Cloudy
5:00 PM 77.0 °F - 66.2 °F 69% 29.98 in 6.2 mi SSW 10.4 mph - N/A   Partly Cloudy
5:30 PM 78.8 °F - 66.2 °F 65% 29.98 in 6.2 mi SSW 9.2 mph - N/A   Partly Cloudy
6:00 PM 77.0 °F - 66.2 °F 69% 29.98 in 6.2 mi SW 9.2 mph - N/A   Partly Cloudy
6:30 PM 77.0 °F - 64.4 °F 65% 29.98 in 6.2 mi SW 8.1 mph - N/A   Partly Cloudy
7:00 PM 77.0 °F - 66.2 °F 69% 29.98 in 6.2 mi SSW 8.1 mph - N/A   Partly Cloudy
7:30 PM 77.0 °F - 64.4 °F 65% 29.98 in - SW 5.8 mph - N/A   Clear
8:00 PM 75 °F - 66 °F 65% 29.98 in 12 mi SSW 5.8 mph - -  
8:00 PM 75.2 °F - 66.2 °F 73% 29.98 in - SSW 5.8 mph - N/A   Clear
8:30 PM 73.4 °F - 66.2 °F 78% 29.98 in - SSW 4.6 mph - N/A   Clear
9:00 PM 73.4 °F - 66.2 °F 78% 29.98 in - SSW 4.6 mph - N/A   Clear
9:30 PM 71.6 °F - 68.0 °F 88% 29.98 in - SSW 5.8 mph - N/A   Clear
10:00 PM 71.6 °F - 68.0 °F 88% 29.98 in - SSW 5.8 mph - N/A   Clear
10:30 PM 71.6 °F - 68.0 °F 88% 29.98 in - Variable 2.3 mph - N/A   Clear
11:00 PM 71.6 °F - 66.2 °F 83% 29.98 in 6.2 mi ESE 2.3 mph - N/A   Partly Cloudy
11:30 PM 69.8 °F - 64.4 °F 83% 29.98 in 6.2 mi SE 3.5 mph - N/A   Partly Cloudy